Weather History for St. Joseph, MO

Change the Weather History Date:

Wednesday, April 17, 2013

  Actual Average Record
Temperature  
Mean Temperature 46 °F 55 °F  
Max Temperature 49 °F 66 °F 90 °F (1975)
Min Temperature 43 °F 43 °F 24 °F (1921)
Degree Days  
Heating Degree Days 19 11  
Month to date heating degree days 287 227  
Since 1 July heating degree days 5240 5220  
Cooling Degree Days 0 1  
Month to date cooling degree days 0 10  
Year to date cooling degree days 0 12  
Moisture  
Dew Point 43 °F    
Average Humidity 77    
Maximum Humidity 93    
Minimum Humidity 60    
Precipitation  
Precipitation 0.82 in 0.12 in 2.38 in (1941)
Month to date precipitation 2.69 1.78  
Year to date precipitation 5.78 5.52  
Sea Level Pressure  
Sea Level Pressure 29.83 in    
Wind  
Wind Speed 11 mph (NE)    
Max Wind Speed 28 mph    
Max Gust Speed 33 mph    
Visibility 6 miles    
Events Rain , Thunderstorm    
T = Trace of Precipitation, MM = Missing Value Source: NWS Daily Summary

Daily Weather History Graph

Daily Weather History Graph

Search for Another Location

Airport:

Trip Planner

Search our weather history database for the weather conditions in past years. The results will help you decide how hot, cold, wet, or windy it might be!

Date:

Astronomy

Apr. 17, 2013 Rise Set
Actual Time 6:38 AM CDT 8:00 PM CDT
Civil Twilight 6:10 AM CDT 8:28 PM CDT
Nautical Twilight 5:37 AM CDT 9:02 PM CDT
Astronomical Twilight 5:01 AM CDT 9:37 PM CDT
Moon 11:53 AM CDT (4/17) 1:38 AM CDT (4/17)
Length of Visible Light 14h 17m
Length of Day
13h 21m
Waxing Crescent, 42% of the Moon is Illuminated
Apr 17
Waxing Crescent
Apr 18
First Quarter
Apr 25
Full
May 2
Last Quarter
May 9
New

Hourly Weather History & Observations

Time (CDT) Temp. Windchill Dew Point Humidity Pressure Visibility Wind Dir Wind Speed Gust Speed Precip Events Conditions
12:53 AM 46.0 °F 41.4 °F 33.1 °F 61% 30.12 in 10.0 mi East 9.2 mph - N/A   Overcast
1:53 AM 46.0 °F 42.5 °F 35.1 °F 66% 30.10 in 10.0 mi NE 6.9 mph - 0.00 in Rain Light Rain
2:53 AM 44.1 °F 40.1 °F 37.0 °F 76% 30.04 in 10.0 mi ENE 6.9 mph - 0.00 in   Overcast
3:53 AM 45.0 °F 41.2 °F 36.0 °F 71% 30.01 in 10.0 mi ENE 6.9 mph - N/A   Overcast
4:53 AM 45.0 °F 40.6 °F 37.0 °F 74% 29.99 in 10.0 mi ENE 8.1 mph - N/A   Overcast
5:53 AM 46.0 °F 41.0 °F 37.0 °F 71% 29.95 in 10.0 mi East 10.4 mph - 0.00 in   Overcast
6:00 AM 46.4 °F 41.9 °F 37.4 °F 71% 29.94 in 10.0 mi East 9.2 mph - N/A Thunderstorm Overcast
6:20 AM 46.4 °F 40.7 °F 37.4 °F 71% 29.92 in 10.0 mi East 12.7 mph - N/A Thunderstorm Overcast
6:41 AM 46.4 °F 40.7 °F 37.4 °F 71% 29.90 in 10.0 mi ESE 12.7 mph - 0.00 in   Overcast
6:48 AM 46.4 °F 41.1 °F 37.4 °F 71% 29.91 in 10.0 mi ESE 11.5 mph 18.4 mph 0.00 in Thunderstorm Overcast
6:53 AM 46.0 °F 40.2 °F 39.0 °F 76% 29.92 in 10.0 mi ESE 12.7 mph 18.4 mph 0.00 in Thunderstorm Overcast
7:07 AM 46.4 °F 40.4 °F 39.2 °F 76% 29.88 in 10.0 mi ESE 13.8 mph 25.3 mph 0.00 in Rain Light Rain
7:37 AM 46.4 °F 44.3 °F 39.2 °F 76% 29.96 in 10.0 mi Variable 4.6 mph 17.3 mph 0.00 in Thunderstorm Overcast
7:53 AM 46.0 °F 41.0 °F 39.9 °F 79% 29.96 in 8.0 mi NNE 10.4 mph 17.3 mph 0.01 in Rain , Thunderstorm Light Thunderstorms and Rain
8:12 AM 46.4 °F 43.5 °F 41.0 °F 81% 29.91 in 8.0 mi ESE 5.8 mph - 0.01 in Rain Light Rain
9:12 AM 44.6 °F 38.1 °F 42.8 °F 93% 29.93 in 1.8 mi NE 13.8 mph - N/A   Overcast
9:34 AM 44.6 °F 38.1 °F 42.8 °F 93% 29.93 in 2.0 mi ENE 13.8 mph - 0.02 in Rain Light Rain
9:43 AM 44.6 °F 38.4 °F 42.8 °F 93% 29.94 in 4.0 mi NNE 12.7 mph - 0.02 in   Overcast
9:53 AM 45.0 °F 39.7 °F 42.1 °F 90% 29.96 in 2.5 mi North 10.4 mph 21.9 mph 0.04 in Rain Light Rain
10:03 AM 44.6 °F 38.1 °F 42.8 °F 93% 29.94 in 1.8 mi NNE 13.8 mph - 0.04 in Rain Rain
10:13 AM 44.6 °F 38.8 °F 42.8 °F 93% 29.93 in 2.5 mi NE 11.5 mph - 0.04 in Rain Light Rain
10:41 AM 44.6 °F 38.4 °F 42.8 °F 93% 29.90 in 4.0 mi NE 12.7 mph - 0.05 in   Overcast
10:53 AM 45.0 °F 40.6 °F 43.0 °F 93% 29.91 in 3.0 mi NE 8.1 mph - 0.05 in Rain Light Rain
11:10 AM 44.6 °F 40.7 °F 42.8 °F 93% 29.89 in 4.0 mi NNE 6.9 mph - 0.01 in Thunderstorm Overcast
11:22 AM 46.4 °F 41.5 °F 42.8 °F 87% 29.90 in 2.0 mi ENE 10.4 mph - 0.01 in   Overcast
11:31 AM 46.4 °F 41.5 °F 42.8 °F 87% 29.91 in 1.8 mi NNE 10.4 mph - 0.01 in Rain Light Rain
11:53 AM 46.0 °F 41.0 °F 44.1 °F 93% 29.90 in 1.0 mi NE 10.4 mph - 0.03 in Rain Light Rain
12:17 PM 46.4 °F 41.9 °F 44.6 °F 93% 29.87 in 2.0 mi ENE 9.2 mph - 0.00 in Rain Light Rain
12:49 PM 46.4 °F 41.5 °F 44.6 °F 93% 29.84 in 4.0 mi East 10.4 mph 20.7 mph 0.01 in   Overcast
12:53 PM 46.9 °F - 44.1 °F 90% 29.84 in 5.0 mi East 10.4 mph 20.7 mph 0.01 in   Overcast
1:25 PM 46.4 °F 42.9 °F 44.6 °F 93% 29.84 in 2.5 mi ENE 6.9 mph - N/A   Overcast
1:39 PM 46.4 °F 42.9 °F 44.6 °F 93% 29.85 in 1.5 mi NNE 6.9 mph - N/A   Overcast
1:53 PM 46.9 °F - 44.1 °F 90% 29.86 in 1.0 mi North 10.4 mph - 0.00 in Rain Light Rain
2:48 PM 46.4 °F 41.9 °F 44.6 °F 93% 29.81 in 2.0 mi NE 9.2 mph - 0.01 in   Overcast
2:53 PM 46.9 °F - 45.0 °F 93% 29.81 in 2.5 mi NE 9.2 mph - 0.01 in   Overcast
3:02 PM 46.4 °F 41.5 °F 44.6 °F 93% 29.80 in 4.0 mi NE 10.4 mph - 0.01 in Rain , Thunderstorm Light Rain
3:53 PM 46.9 °F - 44.1 °F 90% 29.75 in 10.0 mi NE 9.2 mph - 0.01 in   Overcast
4:28 PM 46.4 °F 42.4 °F 44.6 °F 93% 29.75 in 2.5 mi East 8.1 mph - 0.02 in Rain Light Rain
4:35 PM 46.4 °F 42.9 °F 44.6 °F 93% 29.75 in 3.0 mi ESE 6.9 mph - 0.04 in Rain Light Rain
4:53 PM 46.9 °F - 44.1 °F 90% 29.74 in 5.0 mi East 9.2 mph - 0.04 in   Overcast
5:41 PM 46.4 °F 37.7 °F 44.6 °F 93% 29.83 in 4.0 mi WNW 26.5 mph 32.2 mph 0.05 in Rain , Thunderstorm Light Thunderstorms and Rain
5:44 PM 46.4 °F 37.9 °F 44.6 °F 93% 29.82 in 1.5 mi WNW 25.3 mph 33.4 mph 0.14 in Rain , Thunderstorm Heavy Thunderstorms and Rain
5:53 PM 46.9 °F - 45.0 °F 93% 29.75 in 1.5 mi North 17.3 mph 33.4 mph 0.15 in Rain , Thunderstorm Light Rain
5:56 PM 46.4 °F 39.2 °F 44.6 °F 93% 29.75 in 2.5 mi NNW 18.4 mph 29.9 mph 0.01 in Rain , Thunderstorm Rain
5:59 PM 46.4 °F 40.4 °F 44.6 °F 93% 29.74 in 3.0 mi North 13.8 mph - 0.02 in Rain , Thunderstorm Light Rain
6:06 PM 48.2 °F - 44.6 °F 87% 29.75 in 6.0 mi North 11.5 mph 21.9 mph 0.02 in Rain Light Rain
6:14 PM 48.2 °F - 46.4 °F 93% 29.74 in 10.0 mi North 10.4 mph - 0.02 in Rain Light Rain
6:53 PM 48.0 °F - 46.0 °F 93% 29.73 in 10.0 mi North 10.4 mph - 0.05 in   Overcast
7:09 PM 48.2 °F - 46.4 °F 93% 29.70 in 10.0 mi Variable 6.9 mph - 0.01 in Rain , Thunderstorm Light Rain
7:36 PM 48.2 °F - 46.4 °F 93% 29.69 in 9.0 mi NNE 9.2 mph - 0.03 in Rain Rain
7:48 PM 48.2 °F - 46.4 °F 93% 29.68 in 8.0 mi ENE 11.5 mph - 0.05 in Rain , Thunderstorm Light Rain
7:53 PM 48.0 °F - 46.0 °F 93% 29.69 in 10.0 mi NE 11.5 mph - 0.05 in Rain , Thunderstorm Light Rain
8:03 PM 48.2 °F - 46.4 °F 93% 29.72 in 10.0 mi NNW 10.4 mph - 0.00 in Rain , Thunderstorm Light Rain
8:37 PM 48.2 °F - 46.4 °F 93% 29.69 in 6.0 mi NNE 5.8 mph - 0.14 in Rain , Thunderstorm Heavy Thunderstorms and Rain
8:53 PM 48.0 °F - 48.0 °F 100% 29.73 in 7.0 mi Calm Calm - 0.20 in Rain , Thunderstorm Light Thunderstorms and Rain
9:07 PM 48.2 °F - 46.4 °F 93% 29.72 in 10.0 mi NW 15.0 mph - 0.01 in Rain , Thunderstorm Light Thunderstorms and Rain
9:17 PM 48.2 °F - 46.4 °F 93% 29.72 in 10.0 mi NW 15.0 mph - 0.01 in Rain , Thunderstorm Light Rain
9:27 PM 46.4 °F 41.1 °F 44.6 °F 93% 29.74 in 4.0 mi WNW 11.5 mph 20.7 mph 0.07 in Rain , Thunderstorm Heavy Thunderstorms and Rain
9:53 PM 46.0 °F 40.2 °F 45.0 °F 96% 29.76 in 8.0 mi NNW 12.7 mph - 0.12 in Rain , Thunderstorm Light Rain
10:02 PM 46.4 °F 40.1 °F 44.6 °F 93% 29.74 in 10.0 mi NNW 15.0 mph - 0.00 in Thunderstorm Overcast
10:38 PM 44.6 °F 37.8 °F 42.8 °F 93% 29.72 in 10.0 mi NNW 15.0 mph - 0.01 in Rain Light Rain
10:53 PM 44.1 °F 36.5 °F 42.1 °F 93% 29.71 in 10.0 mi North 17.3 mph - 0.01 in Rain Light Rain
11:02 PM 44.6 °F 36.9 °F 42.8 °F 93% 29.70 in 10.0 mi NNW 18.4 mph - 0.01 in Rain , Thunderstorm Light Thunderstorms and Rain
11:41 PM 42.8 °F 35.4 °F 41.0 °F 93% 29.67 in 10.0 mi North 15.0 mph 24.2 mph 0.03 in   Overcast
11:53 PM 43.0 °F 36.4 °F 41.0 °F 93% 29.70 in 10.0 mi North 12.7 mph - 0.03 in   Overcast